QPF
0.02 0.03 0.04 0.04 0.04 0.03 0.02 0.01 0.01 0.01 0.01 0.01 0.01 0.00 0.01 0.01 0.01 0.01 0.00 0.00 0.00 0.00 0.01 0.01 0.01 0.00 0.01 0.01 0.02 0.03 0.02 0.01 0.01 0.01 0.02 0.01 0.02 0.02 0.03 0.06 0.08 0.10 0.12
0.02 0.03 0.04 0.04 0.03 0.03 0.02 0.01 0.01 0.01 0.00 0.00 0.01 0.01 0.01 0.01 0.01 0.01 0.01 0.00 0.00 0.00 0.00 0.00 0.00 0.00 0.00 0.01 0.01 0.01 0.01 0.01 0.01 0.02 0.02 0.02 0.02 0.02 0.02 0.03 0.05 0.07 0.09
0.02 0.03 0.04 0.04 0.02 0.02 0.01 0.01 0.01 0.00 0.00 0.00 0.00 0.00 0.01 0.01 0.01 0.01 0.01 0.01 0.01 0.00 0.00 0.00 0.00 0.00 0.00 0.00 0.00 0.00 0.01 0.01 0.01 0.01 0.02 0.03 0.03 0.02 0.03 0.02 0.02 0.04 0.06
0.02 0.04 0.05 0.04 0.02 0.01 0.01 0.01 0.00 0.00 0.00 0.00 0.00 0.00 0.00 0.00 0.00 0.00 0.00 0.00 0.01 0.00 0.00 0.00 0.00 0.00 0.00 0.00 0.00 0.00 0.00 0.01 0.01 0.01 0.02 0.02 0.02 0.02 0.03 0.02 0.02 0.03 0.05
0.02 0.03 0.05 0.03 0.01 0.01 0.01 0.01 0.01 0.00 0.00 0.00 0.00 0.00 0.00 0.00 0.00 0.00 0.00 0.00 0.00 0.00 0.00 0.00 0.00 0.00 0.00 0.00 0.00 0.00 0.00 0.00 0.00 0.01 0.01 0.01 0.01 0.02 0.03 0.03 0.02 0.02 0.03
0.02 0.02 0.03 0.02 0.01 0.01 0.01 0.01 0.01 0.00 0.00 0.00 0.00 0.00 0.00 0.00 0.00 0.00 0.00 0.00 0.00 0.00 0.00 0.00 0.00 0.00 0.00 0.00 0.00 0.00 0.00 0.00 0.00 0.01 0.01 0.01 0.01 0.01 0.02 0.04 0.04 0.04 0.04
0.01 0.02 0.02 0.01 0.01 0.00 0.00 0.00 0.00 0.00 0.00 0.00 0.00 0.00 0.00 0.00 0.00 0.00 0.00 0.00 0.00 0.00 0.00 0.00 0.00 0.00 0.00 0.00 0.00 0.00 0.00 0.00 0.00 0.00 0.00 0.00 0.01 0.01 0.02 0.03 0.04 0.05 0.05
0.01 0.02 0.01 0.01 0.00 0.00 0.00 0.00 0.00 0.00 0.00 0.00 0.00 0.00 0.00 0.00 0.00 0.00 0.00 0.00 0.00 0.00 0.00 0.00 0.00 0.00 0.00 0.00 0.00 0.00 0.00 0.00 0.00 0.00 0.00 0.01 0.01 0.01 0.01 0.02 0.03 0.03 0.03
0.00 0.01 0.01 0.00 0.00 0.00 0.00 0.00 0.00 0.00 0.00 0.00 0.00 0.00 0.00 0.00 0.00 0.00 0.00 0.00 0.00 0.00 0.00 0.00 0.00 0.00 0.00 0.00 0.00 0.00 0.00 0.00 0.00 0.00 0.00 0.00 0.00 0.00 0.01 0.01 0.02 0.03 0.03
0.00 0.01 0.01 0.00 0.00 0.00 0.00 0.00 0.00 0.00 0.00 0.00 0.00 0.00 0.00 0.00 0.00 0.00 0.00 0.00 0.00 0.00 0.00 0.00 0.00 0.00 0.00 0.00 0.00 0.00 0.00 0.00 0.00 0.00 0.00 0.00 0.00 0.01 0.01 0.01 0.02 0.03 0.03
0.00 0.00 0.00 0.00 0.00 0.00 0.00 0.00 0.00 0.00 0.00 0.00 0.00 0.00 0.00 0.00 0.00 0.00 0.00 0.00 0.00 0.00 0.00 0.00 0.00 0.00 0.00 0.00 0.00 0.00 0.00 0.00 0.00 0.00 0.00 0.00 0.01 0.01 0.01 0.02 0.02 0.03 0.04
0.00 0.00 0.00 0.00 0.00 0.00 0.00 0.00 0.00 0.00 0.00 0.00 0.00 0.00 0.00 0.00 0.00 0.00 0.00 0.00 0.00 0.00 0.00 0.00 0.00 0.00 0.00 0.00 0.00 0.00 0.00 0.00 0.00 0.00 0.00 0.01 0.01 0.01 0.01 0.02 0.02 0.04 0.04
0.00 0.00 0.00 0.00 0.00 0.00 0.00 0.00 0.00 0.00 0.00 0.00 0.00 0.00 0.00 0.00 0.00 0.00 0.00 0.00 0.00 0.00 0.00 0.00 0.00 0.00 0.00 0.00 0.00 0.00 0.00 0.01 0.01 0.01 0.01 0.01 0.01 0.01 0.01 0.02 0.02 0.02 0.02
0.00 0.00 0.00 0.00 0.00 0.00 0.00 0.00 0.00 0.00 0.00 0.00 0.00 0.00 0.00 0.00 0.00 0.00 0.00 0.00 0.00 0.00 0.00 0.00 0.00 0.00 0.00 0.00 0.00 0.00 0.00 0.00 0.00 0.00 0.00 0.00 0.01 0.01 0.01 0.01 0.01 0.02 0.01
0.00 0.00 0.00 0.00 0.00 0.00 0.00 0.00 0.00 0.00 0.00 0.00 0.00 0.00 0.00 0.00 0.00 0.00 0.00 0.00 0.00 0.00 0.00 0.00 0.00 0.00 0.00 0.00 0.00 0.00 0.00 0.01 0.01 0.01 0.00 0.00 0.01 0.01 0.01 0.01 0.01 0.02 0.02
0.00 0.00 0.00 0.00 0.00 0.00 0.00 0.00 0.00 0.00 0.00 0.00 0.00 0.00 0.00 0.00 0.00 0.00 0.00 0.00 0.00 0.00 0.00 0.00 0.00 0.00 0.00 0.00 0.00 0.00 0.00 0.00 0.00 0.00 0.00 0.00 0.01 0.01 0.01 0.01 0.01 0.01 0.01
0.00 0.00 0.00 0.00 0.00 0.00 0.00 0.00 0.00 0.00 0.00 0.00 0.00 0.00 0.00 0.00 0.00 0.00 0.00 0.00 0.00 0.00 0.00 0.00 0.00 0.00 0.00 0.00 0.00 0.00 0.00 0.00 0.00 0.00 0.00 0.00 0.00 0.00 0.01 0.01 0.01 0.01 0.01
0.00 0.00 0.00 0.00 0.00 0.00 0.00 0.00 0.00 0.00 0.00 0.00 0.00 0.00 0.00 0.00 0.00 0.00 0.00 0.00 0.00 0.00 0.00 0.00 0.01 0.01 0.01 0.01 0.01 0.00 0.00 0.00 0.00 0.00 0.00 0.00 0.00 0.00 0.00 0.01 0.01 0.01 0.01
0.00 0.00 0.00 0.00 0.00 0.00 0.00 0.00 0.00 0.00 0.00 0.00 0.00 0.00 0.00 0.00 0.00 0.00 0.00 0.00 0.00 0.00 0.00 0.00 0.00 0.00 0.00 0.00 0.00 0.00 0.00 0.00 0.00 0.00 0.00 0.00 0.00 0.00 0.00 0.00 0.01 0.01 0.01
0.00 0.00 0.00 0.00 0.00 0.00 0.00 0.00 0.00 0.00 0.00 0.00 0.00 0.00 0.00 0.00 0.00 0.00 0.00 0.00 0.00 0.00 0.00 0.00 0.00 0.00 0.00 0.00 0.00 0.00 0.00 0.00 0.00 0.00 0.00 0.00 0.00 0.01 0.01 0.00 0.00 0.00 0.00
0.00 0.00 0.00 0.00 0.00 0.00 0.00 0.00 0.00 0.00 0.00 0.00 0.00 0.00 0.00 0.00 0.00 0.00 0.00 0.00 0.00 0.00 0.00 0.00 0.00 0.00 0.00 0.00 0.00 0.00 0.00 0.00 0.01 0.01 0.01 0.01 0.01 0.01 0.01 0.01 0.01 0.01 0.00
0.00 0.00 0.00 0.00 0.00 0.00 0.00 0.00 0.00 0.00 0.00 0.00 0.00 0.00 0.00 0.00 0.00 0.00 0.00 0.00 0.00 0.00 0.00 0.00 0.00 0.00 0.00 0.00 0.00 0.00 0.00 0.00 0.00 0.01 0.01 0.01 0.02 0.02 0.02 0.01 0.01 0.01 0.00
0.00 0.00 0.00 0.00 0.00 0.00 0.00 0.00 0.00 0.00 0.00 0.00 0.00 0.00 0.00 0.00 0.00 0.00 0.00 0.00 0.00 0.00 0.00 0.00 0.00 0.00 0.00 0.00 0.00 0.00 0.00 0.00 0.00 0.00 0.00 0.00 0.00 0.00 0.01 0.01 0.00 0.00 0.00
0.00 0.00 0.00 0.00 0.00 0.00 0.00 0.00 0.00 0.00 0.00 0.00 0.00 0.00 0.00 0.00 0.00 0.00 0.00 0.00 0.00 0.00 0.00 0.00 0.00 0.00 0.00 0.00 0.00 0.00 0.00 0.00 0.00 0.00 0.00 0.00 0.00 0.00 0.00 0.00 0.00 0.00 0.00
0.00 0.00 0.00 0.00 0.00 0.00 0.00 0.00 0.00 0.00 0.00 0.00 0.00 0.00 0.00 0.00 0.00 0.00 0.00 0.00 0.00 0.00 0.00 0.00 0.00 0.00 0.00 0.00 0.00 0.00 0.00 0.00 0.00 0.00 0.00 0.00 0.00 0.00 0.00 0.00 0.00 0.00 0.00
0.00 0.00 0.00 0.00 0.00 0.00 0.00 0.00 0.00 0.00 0.00 0.00 0.00 0.00 0.00 0.00 0.00 0.00 0.00 0.00 0.00 0.00 0.00 0.00 0.00 0.00 0.00 0.00 0.00 0.00 0.00 0.00 0.00 0.00 0.00 0.00 0.00 0.00 0.00 0.00 0.00 0.00 0.00
MSLP
1017.27 1017.81 1018.39 1018.97 1019.49 1019.91 1020.22 1020.42 1020.51 1020.53 1020.51 1020.48 1020.46 1020.47 1020.50 1020.56 1020.61 1020.66 1020.67 1020.65 1020.58 1020.49 1020.36 1020.21 1020.05 1019.88 1019.68 1019.45 1019.17 1018.85 1018.48 1018.05 1017.57 1017.07 1016.56 1016.06 1015.58 1015.15 1014.80 1014.52 1014.33 1014.23 1014.22
1016.73 1017.31 1017.95 1018.59 1019.18 1019.67 1020.05 1020.32 1020.48 1020.57 1020.60 1020.62 1020.63 1020.65 1020.69 1020.72 1020.76 1020.77 1020.77 1020.75 1020.70 1020.64 1020.57 1020.48 1020.37 1020.24 1020.08 1019.87 1019.62 1019.31 1018.95 1018.55 1018.11 1017.66 1017.20 1016.75 1016.33 1015.95 1015.63 1015.37 1015.19 1015.10 1015.09
1016.25 1016.87 1017.56 1018.25 1018.89 1019.44 1019.88 1020.21 1020.44 1020.59 1020.69 1020.75 1020.80 1020.83 1020.86 1020.88 1020.89 1020.88 1020.87 1020.84 1020.81 1020.78 1020.75 1020.70 1020.65 1020.56 1020.43 1020.25 1020.02 1019.73 1019.40 1019.04 1018.66 1018.27 1017.88 1017.51 1017.16 1016.84 1016.55 1016.31 1016.13 1016.02 1015.98
1015.89 1016.54 1017.25 1017.97 1018.64 1019.23 1019.71 1020.09 1020.37 1020.57 1020.72 1020.83 1020.91 1020.97 1021.00 1021.01 1021.00 1020.98 1020.95 1020.92 1020.90 1020.89 1020.89 1020.89 1020.87 1020.82 1020.72 1020.57 1020.36 1020.11 1019.82 1019.51 1019.19 1018.88 1018.57 1018.28 1018.01 1017.74 1017.49 1017.26 1017.06 1016.92 1016.83
1015.67 1016.32 1017.04 1017.76 1018.43 1019.02 1019.52 1019.91 1020.22 1020.47 1020.66 1020.81 1020.93 1021.01 1021.06 1021.08 1021.07 1021.04 1021.00 1020.97 1020.96 1020.97 1020.99 1021.02 1021.03 1021.01 1020.94 1020.82 1020.64 1020.42 1020.18 1019.93 1019.68 1019.44 1019.22 1019.01 1018.81 1018.59 1018.36 1018.14 1017.91 1017.71 1017.55
1015.58 1016.22 1016.92 1017.61 1018.25 1018.81 1019.28 1019.66 1019.97 1020.24 1020.46 1020.65 1020.81 1020.93 1021.01 1021.05 1021.06 1021.04 1021.01 1020.98 1020.98 1020.99 1021.03 1021.08 1021.11 1021.11 1021.07 1020.97 1020.83 1020.65 1020.46 1020.26 1020.09 1019.93 1019.78 1019.65 1019.50 1019.33 1019.12 1018.89 1018.63 1018.38 1018.14
1015.60 1016.20 1016.85 1017.48 1018.06 1018.55 1018.97 1019.31 1019.60 1019.86 1020.10 1020.33 1020.53 1020.70 1020.83 1020.91 1020.94 1020.94 1020.93 1020.92 1020.93 1020.95 1021.00 1021.06 1021.10 1021.12 1021.10 1021.03 1020.92 1020.78 1020.63 1020.50 1020.38 1020.29 1020.21 1020.13 1020.04 1019.91 1019.72 1019.48 1019.20 1018.90 1018.59
1015.68 1016.23 1016.80 1017.35 1017.83 1018.23 1018.56 1018.84 1019.09 1019.34 1019.58 1019.84 1020.08 1020.30 1020.48 1020.62 1020.70 1020.74 1020.76 1020.78 1020.80 1020.84 1020.89 1020.95 1021.01 1021.04 1021.03 1020.99 1020.91 1020.80 1020.70 1020.60 1020.54 1020.49 1020.47 1020.45 1020.40 1020.30 1020.14 1019.91 1019.63 1019.30 1018.95
1015.77 1016.24 1016.72 1017.16 1017.53 1017.83 1018.06 1018.27 1018.46 1018.68 1018.92 1019.19 1019.48 1019.75 1019.99 1020.19 1020.33 1020.42 1020.48 1020.53 1020.57 1020.63 1020.70 1020.77 1020.84 1020.88 1020.89 1020.86 1020.80 1020.73 1020.65 1020.59 1020.55 1020.55 1020.57 1020.58 1020.57 1020.52 1020.39 1020.19 1019.92 1019.60 1019.24
1015.83 1016.21 1016.58 1016.91 1017.16 1017.34 1017.48 1017.60 1017.74 1017.92 1018.16 1018.44 1018.75 1019.07 1019.37 1019.62 1019.82 1019.98 1020.09 1020.18 1020.26 1020.34 1020.43 1020.52 1020.60 1020.66 1020.68 1020.67 1020.62 1020.57 1020.50 1020.46 1020.45 1020.47 1020.51 1020.55 1020.58 1020.56 1020.48 1020.33 1020.10 1019.81 1019.48
1015.82 1016.10 1016.37 1016.58 1016.72 1016.80 1016.85 1016.89 1016.98 1017.12 1017.34 1017.63 1017.96 1018.31 1018.64 1018.95 1019.20 1019.41 1019.57 1019.71 1019.83 1019.96 1020.08 1020.20 1020.30 1020.38 1020.42 1020.43 1020.40 1020.35 1020.29 1020.26 1020.25 1020.28 1020.33 1020.40 1020.45 1020.48 1020.44 1020.35 1020.18 1019.95 1019.67
1015.73 1015.93 1016.09 1016.20 1016.25 1016.24 1016.21 1016.20 1016.23 1016.35 1016.55 1016.82 1017.15 1017.51 1017.86 1018.20 1018.49 1018.73 1018.95 1019.14 1019.31 1019.49 1019.66 1019.82 1019.96 1020.07 1020.13 1020.16 1020.14 1020.10 1020.05 1020.01 1020.00 1020.02 1020.08 1020.16 1020.23 1020.29 1020.31 1020.26 1020.16 1020.00 1019.78
1015.61 1015.72 1015.80 1015.82 1015.79 1015.71 1015.63 1015.57 1015.57 1015.66 1015.83 1016.07 1016.38 1016.72 1017.07 1017.40 1017.71 1017.98 1018.23 1018.47 1018.70 1018.93 1019.16 1019.37 1019.56 1019.71 1019.81 1019.86 1019.86 1019.83 1019.78 1019.74 1019.72 1019.73 1019.79 1019.86 1019.95 1020.03 1020.08 1020.09 1020.04 1019.94 1019.78
1015.48 1015.52 1015.53 1015.49 1015.40 1015.28 1015.17 1015.08 1015.05 1015.10 1015.23 1015.44 1015.70 1015.99 1016.30 1016.60 1016.90 1017.18 1017.46 1017.73 1018.01 1018.30 1018.59 1018.87 1019.12 1019.31 1019.46 1019.54 1019.56 1019.54 1019.49 1019.45 1019.42 1019.43 1019.47 1019.54 1019.63 1019.72 1019.79 1019.82 1019.81 1019.75 1019.64
1015.41 1015.40 1015.35 1015.26 1015.13 1014.99 1014.85 1014.74 1014.69 1014.71 1014.79 1014.93 1015.13 1015.35 1015.59 1015.85 1016.10 1016.37 1016.65 1016.95 1017.28 1017.62 1017.97 1018.31 1018.61 1018.87 1019.05 1019.17 1019.22 1019.22 1019.18 1019.14 1019.11 1019.11 1019.14 1019.19 1019.27 1019.35 1019.42 1019.46 1019.46 1019.42 1019.33
1015.44 1015.38 1015.29 1015.16 1015.01 1014.85 1014.70 1014.58 1014.51 1014.48 1014.51 1014.58 1014.69 1014.82 1014.98 1015.16 1015.36 1015.59 1015.86 1016.18 1016.53 1016.92 1017.32 1017.71 1018.07 1018.37 1018.60 1018.75 1018.83 1018.85 1018.83 1018.79 1018.77 1018.76 1018.78 1018.82 1018.88 1018.95 1019.00 1019.03 1019.02 1018.96 1018.87
1015.59 1015.49 1015.36 1015.20 1015.03 1014.86 1014.70 1014.57 1014.47 1014.40 1014.36 1014.36 1014.37 1014.41 1014.47 1014.56 1014.70 1014.89 1015.14 1015.45 1015.82 1016.23 1016.67 1017.10 1017.49 1017.83 1018.09 1018.27 1018.38 1018.42 1018.42 1018.40 1018.38 1018.37 1018.38 1018.42 1018.46 1018.50 1018.53 1018.52 1018.49 1018.41 1018.30
1015.85 1015.71 1015.54 1015.35 1015.16 1014.98 1014.81 1014.66 1014.53 1014.41 1014.32 1014.23 1014.16 1014.10 1014.08 1014.09 1014.16 1014.30 1014.52 1014.82 1015.19 1015.61 1016.06 1016.51 1016.92 1017.27 1017.55 1017.75 1017.87 1017.93 1017.94 1017.94 1017.93 1017.93 1017.95 1017.97 1018.00 1018.02 1018.02 1017.98 1017.90 1017.79 1017.65
1016.17 1015.99 1015.78 1015.57 1015.35 1015.15 1014.96 1014.79 1014.63 1014.47 1014.32 1014.17 1014.02 1013.89 1013.78 1013.73 1013.75 1013.84 1014.03 1014.31 1014.67 1015.09 1015.53 1015.97 1016.37 1016.72 1016.99 1017.18 1017.31 1017.38 1017.41 1017.42 1017.43 1017.44 1017.47 1017.49 1017.51 1017.51 1017.48 1017.41 1017.30 1017.16 1016.99
1016.49 1016.27 1016.02 1015.78 1015.53 1015.31 1015.10 1014.90 1014.71 1014.52 1014.32 1014.12 1013.91 1013.73 1013.57 1013.47 1013.45 1013.52 1013.68 1013.94 1014.28 1014.67 1015.08 1015.49 1015.87 1016.18 1016.43 1016.61 1016.72 1016.79 1016.83 1016.86 1016.88 1016.92 1016.95 1016.98 1017.00 1016.99 1016.94 1016.85 1016.71 1016.55 1016.36
1016.75 1016.49 1016.21 1015.93 1015.67 1015.42 1015.19 1014.97 1014.75 1014.52 1014.29 1014.05 1013.81 1013.59 1013.41 1013.29 1013.25 1013.30 1013.44 1013.68 1013.98 1014.34 1014.72 1015.08 1015.40 1015.68 1015.89 1016.04 1016.13 1016.20 1016.24 1016.28 1016.32 1016.37 1016.42 1016.46 1016.48 1016.46 1016.40 1016.30 1016.15 1015.97 1015.77
1016.90 1016.62 1016.32 1016.02 1015.73 1015.46 1015.20 1014.95 1014.71 1014.46 1014.20 1013.94 1013.69 1013.45 1013.27 1013.14 1013.09 1013.14 1013.27 1013.48 1013.76 1014.07 1014.40 1014.71 1014.98 1015.20 1015.36 1015.47 1015.55 1015.60 1015.65 1015.70 1015.75 1015.82 1015.88 1015.93 1015.96 1015.94 1015.88 1015.77 1015.62 1015.43 1015.23
1016.95 1016.65 1016.33 1016.01 1015.71 1015.42 1015.14 1014.87 1014.60 1014.33 1014.06 1013.78 1013.52 1013.29 1013.11 1012.99 1012.95 1012.99 1013.12 1013.31 1013.55 1013.82 1014.09 1014.34 1014.55 1014.72 1014.84 1014.92 1014.97 1015.02 1015.06 1015.12 1015.19 1015.27 1015.35 1015.41 1015.44 1015.43 1015.37 1015.26 1015.11 1014.93 1014.74
1016.90 1016.59 1016.27 1015.95 1015.63 1015.32 1015.03 1014.73 1014.44 1014.15 1013.86 1013.58 1013.32 1013.09 1012.92 1012.81 1012.78 1012.82 1012.93 1013.09 1013.30 1013.52 1013.74 1013.93 1014.09 1014.21 1014.30 1014.35 1014.40 1014.44 1014.50 1014.57 1014.65 1014.74 1014.82 1014.89 1014.93 1014.92 1014.86 1014.76 1014.62 1014.45 1014.28
1016.78 1016.48 1016.16 1015.84 1015.51 1015.19 1014.87 1014.55 1014.24 1013.92 1013.62 1013.33 1013.07 1012.85 1012.68 1012.57 1012.54 1012.57 1012.66 1012.80 1012.96 1013.14 1013.31 1013.45 1013.57 1013.66 1013.72 1013.77 1013.82 1013.87 1013.93 1014.02 1014.11 1014.21 1014.31 1014.38 1014.41 1014.41 1014.36 1014.26 1014.13 1013.99 1013.83
1016.64 1016.35 1016.03 1015.70 1015.36 1015.02 1014.68 1014.33 1013.99 1013.65 1013.33 1013.03 1012.76 1012.54 1012.37 1012.27 1012.23 1012.24 1012.30 1012.41 1012.53 1012.66 1012.78 1012.89 1012.98 1013.05 1013.11 1013.16 1013.22 1013.28 1013.37 1013.47 1013.58 1013.69 1013.79 1013.86 1013.90 1013.89 1013.85 1013.77 1013.65 1013.53 1013.40
Thickness
5633 5633 5631 5628 5626 5624 5623 5622 5621 5620 5619 5617 5616 5614 5612 5611 5610 5609 5608 5607 5606 5605 5604 5603 5603 5602 5601 5601 5602 5602 5603 5604 5606 5608 5611 5617 5619 5619 5619 5619 5618 5618 5618
5629 5628 5625 5622 5620 5617 5616 5615 5614 5613 5611 5610 5608 5606 5605 5603 5602 5601 5599 5598 5597 5596 5595 5594 5593 5593 5592 5592 5591 5591 5591 5592 5592 5592 5595 5600 5604 5606 5608 5606 5605 5605 5605
5624 5622 5620 5616 5613 5610 5609 5609 5607 5606 5604 5603 5601 5600 5598 5596 5594 5593 5592 5591 5589 5588 5586 5585 5585 5584 5583 5582 5581 5580 5579 5578 5579 5579 5579 5580 5583 5586 5592 5593 5592 5591 5592
5621 5618 5615 5611 5608 5605 5604 5602 5600 5599 5597 5595 5593 5591 5590 5588 5587 5586 5585 5584 5582 5580 5578 5577 5576 5575 5573 5572 5571 5570 5568 5567 5566 5567 5567 5566 5566 5568 5573 5577 5578 5577 5577
5614 5612 5609 5606 5604 5601 5598 5596 5594 5592 5590 5588 5587 5584 5582 5581 5580 5579 5577 5576 5574 5572 5570 5568 5567 5565 5564 5562 5561 5559 5558 5556 5555 5554 5554 5554 5554 5555 5554 5558 5561 5562 5563
5608 5606 5604 5601 5598 5595 5592 5589 5587 5585 5583 5581 5580 5578 5576 5574 5573 5571 5569 5567 5566 5564 5562 5560 5557 5556 5554 5552 5551 5549 5548 5546 5544 5543 5542 5541 5541 5540 5540 5541 5544 5546 5549
5601 5599 5597 5594 5591 5588 5585 5583 5581 5579 5577 5575 5573 5571 5569 5567 5565 5563 5561 5559 5556 5554 5552 5550 5548 5546 5544 5542 5541 5539 5537 5535 5533 5532 5530 5530 5529 5528 5527 5527 5529 5531 5535
5596 5594 5592 5589 5586 5584 5581 5578 5576 5574 5572 5570 5567 5565 5563 5560 5558 5556 5553 5550 5548 5546 5543 5541 5539 5537 5534 5532 5530 5528 5526 5524 5522 5521 5519 5518 5517 5516 5515 5514 5514 5516 5520
5591 5589 5586 5584 5582 5579 5576 5573 5571 5569 5566 5564 5561 5558 5556 5553 5550 5548 5545 5542 5540 5537 5535 5532 5529 5527 5524 5522 5519 5517 5515 5513 5511 5509 5508 5507 5506 5504 5503 5501 5500 5499 5501
5585 5584 5581 5578 5576 5574 5571 5569 5566 5563 5561 5558 5555 5553 5549 5546 5543 5540 5537 5534 5531 5528 5526 5523 5520 5517 5514 5511 5508 5506 5504 5501 5499 5498 5496 5495 5493 5492 5490 5489 5487 5486 5485
5578 5577 5575 5573 5571 5568 5565 5562 5560 5557 5554 5552 5549 5545 5542 5539 5536 5532 5529 5526 5522 5519 5516 5513 5510 5506 5503 5500 5497 5495 5493 5490 5488 5487 5485 5483 5482 5480 5478 5476 5474 5472 5472
5573 5571 5570 5567 5565 5562 5560 5557 5554 5551 5548 5545 5542 5538 5535 5531 5527 5524 5521 5518 5514 5510 5507 5503 5500 5496 5493 5490 5487 5484 5482 5479 5477 5476 5473 5471 5470 5467 5465 5463 5461 5459 5458
5568 5565 5563 5561 5558 5556 5554 5551 5548 5545 5542 5538 5534 5531 5527 5523 5520 5516 5513 5509 5505 5501 5498 5494 5490 5486 5483 5480 5477 5474 5471 5469 5467 5465 5462 5460 5457 5455 5452 5450 5448 5446 5446
5562 5559 5556 5554 5552 5550 5548 5545 5542 5538 5535 5531 5527 5523 5519 5516 5512 5509 5505 5501 5497 5492 5488 5485 5481 5477 5474 5470 5467 5464 5461 5459 5457 5455 5452 5449 5446 5443 5440 5438 5436 5434 5432
5557 5554 5550 5547 5545 5543 5541 5538 5535 5532 5528 5524 5519 5516 5512 5508 5504 5500 5496 5492 5488 5484 5479 5475 5471 5468 5464 5461 5457 5454 5451 5448 5446 5444 5441 5439 5436 5433 5430 5428 5425 5423 5421
5550 5547 5544 5540 5537 5535 5533 5531 5528 5525 5521 5516 5512 5508 5504 5500 5496 5492 5487 5483 5478 5474 5470 5466 5462 5458 5456 5453 5450 5446 5442 5439 5436 5434 5431 5428 5426 5423 5420 5418 5416 5413 5410
5542 5538 5535 5532 5529 5527 5525 5522 5519 5516 5512 5508 5504 5500 5496 5491 5487 5483 5478 5474 5469 5465 5461 5457 5453 5450 5446 5444 5441 5437 5433 5430 5426 5424 5420 5418 5416 5413 5409 5407 5405 5402 5400
5532 5529 5525 5523 5520 5518 5516 5513 5510 5506 5502 5498 5494 5491 5486 5482 5478 5473 5469 5465 5460 5456 5452 5449 5445 5441 5438 5435 5432 5428 5424 5420 5417 5414 5411 5408 5405 5403 5400 5397 5394 5390 5388
5522 5518 5516 5514 5511 5509 5506 5503 5499 5495 5492 5488 5484 5481 5477 5472 5468 5464 5460 5456 5451 5447 5443 5440 5436 5432 5429 5427 5423 5419 5414 5410 5408 5406 5403 5399 5396 5393 5391 5387 5383 5380 5377
5513 5510 5507 5504 5501 5499 5496 5492 5488 5484 5481 5478 5475 5471 5467 5463 5459 5455 5451 5447 5442 5438 5435 5431 5427 5423 5420 5417 5414 5410 5405 5401 5398 5396 5393 5391 5388 5384 5381 5377 5373 5370 5367
5503 5501 5497 5493 5490 5488 5484 5480 5476 5473 5471 5469 5465 5461 5457 5454 5450 5446 5442 5437 5433 5428 5425 5421 5418 5414 5411 5408 5405 5401 5396 5392 5389 5386 5383 5381 5378 5375 5372 5368 5364 5361 5358
5493 5490 5485 5482 5479 5476 5472 5468 5466 5464 5461 5458 5455 5451 5448 5444 5441 5436 5432 5428 5423 5418 5414 5411 5408 5405 5402 5400 5396 5393 5389 5385 5380 5377 5374 5371 5369 5365 5362 5358 5355 5352 5348
5481 5478 5473 5470 5467 5464 5460 5456 5456 5453 5450 5447 5444 5441 5438 5435 5431 5427 5422 5418 5414 5410 5406 5402 5399 5396 5394 5391 5388 5384 5380 5376 5372 5368 5365 5362 5359 5356 5352 5348 5345 5341 5337
5469 5465 5461 5458 5455 5452 5449 5446 5445 5442 5439 5436 5433 5430 5427 5425 5422 5418 5414 5410 5406 5402 5399 5395 5391 5388 5385 5381 5378 5374 5370 5367 5363 5359 5356 5353 5350 5346 5343 5338 5334 5330 5326
5456 5452 5448 5446 5444 5442 5439 5436 5433 5430 5427 5425 5422 5420 5417 5415 5412 5409 5406 5402 5400 5395 5392 5388 5384 5379 5376 5375 5371 5366 5362 5357 5354 5350 5346 5342 5338 5335 5331 5327 5323 5320 5316
5444 5440 5437 5435 5433 5430 5428 5426 5423 5419 5416 5414 5412 5409 5407 5405 5402 5399 5397 5395 5391 5389 5386 5382 5377 5374 5371 5367 5364 5359 5354 5350 5346 5342 5337 5334 5330 5326 5322 5318 5314 5310 5306